Time,TemperatureF,DewpointF,PressureIn,WindDirection,WindDirectionDegrees,WindSpeedMPH,WindSpeedGustMPH,Humidity,HourlyPrecipIn,Conditions,Clouds,dailyrainin,SoftwareType,DateUTC
2014-02-11 00:02:00,-7.0,-12.1,30.42,WNW,284,1.2,0.0,78,0.00,CLR,,0.00,WeatherDisplay:10.37,2014-02-11 06:02:00,
2014-02-11 00:07:00,-7.2,-12.5,30.42,WNW,284,0.0,0.0,77,0.00,CLR,,0.00,WeatherDisplay:10.37,2014-02-11 06:07:00,
2014-02-11 00:12:00,-7.1,-12.2,30.42,WNW,283,1.2,1.2,78,0.00,CLR,,0.00,WeatherDisplay:10.37,2014-02-11 06:12:00,
2014-02-11 00:17:00,-6.8,-12.1,30.42,WNW,284,1.2,0.0,77,0.00,CLR,,0.00,WeatherDisplay:10.37,2014-02-11 06:17:00,
2014-02-11 00:22:00,-6.5,-11.8,30.42,WNW,283,1.2,1.2,77,0.00,CLR,,0.00,WeatherDisplay:10.37,2014-02-11 06:22:00,
2014-02-11 00:27:00,-6.6,-11.9,30.41,WNW,283,0.0,0.0,77,0.00,CLR,,0.00,WeatherDisplay:10.37,2014-02-11 06:27:00,
2014-02-11 00:32:00,-6.6,-11.9,30.42,WNW,284,0.0,0.0,77,0.00,CLR,,0.00,WeatherDisplay:10.37,2014-02-11 06:32:00,
2014-02-11 00:37:00,-6.5,-11.8,30.42,WNW,284,1.2,1.2,77,0.00,CLR,,0.00,WeatherDisplay:10.37,2014-02-11 06:37:00,
2014-02-11 00:42:00,-6.5,-11.8,30.42,WNW,283,1.2,1.2,77,0.00,CLR,,0.00,WeatherDisplay:10.37,2014-02-11 06:42:00,
2014-02-11 00:47:00,-6.5,-11.8,30.41,WNW,284,1.2,1.2,77,0.00,CLR,,0.00,WeatherDisplay:10.37,2014-02-11 06:47:00,
2014-02-11 00:52:00,-6.2,-11.5,30.41,WNW,284,0.0,0.0,77,0.00,CLR,,0.00,WeatherDisplay:10.37,2014-02-11 06:52:00,
2014-02-11 00:57:00,-5.9,-11.2,30.40,WNW,283,0.0,0.0,77,0.00,CLR,,0.00,WeatherDisplay:10.37,2014-02-11 06:57:00,
2014-02-11 01:02:00,-5.7,-11.0,30.40,WNW,284,1.2,1.2,77,0.00,CLR,,0.00,WeatherDisplay:10.37,2014-02-11 07:02:00,
2014-02-11 01:07:00,-5.6,-11.0,30.41,WNW,284,1.2,1.2,77,0.00,CLR,,0.00,WeatherDisplay:10.37,2014-02-11 07:07:00,
2014-02-11 01:12:00,-5.5,-10.9,30.40,WNW,283,0.0,0.0,77,0.00,CLR,,0.00,WeatherDisplay:10.37,2014-02-11 07:12:00,
2014-02-11 01:17:00,-5.6,-11.0,30.40,WNW,284,0.0,0.0,77,0.00,CLR,,0.00,WeatherDisplay:10.37,2014-02-11 07:17:00,
2014-02-11 01:22:00,-5.8,-11.1,30.40,WNW,284,1.0,1.0,77,0.00,CLR,,0.00,WeatherDisplay:10.37,2014-02-11 07:22:00,
2014-02-11 01:27:00,-5.7,-11.0,30.40,WNW,284,2.3,2.3,77,0.00,CLR,,0.00,WeatherDisplay:10.37,2014-02-11 07:27:00,
2014-02-11 01:32:00,-5.7,-11.0,30.41,WNW,284,2.3,2.3,77,0.00,CLR,,0.00,WeatherDisplay:10.37,2014-02-11 07:32:00,
2014-02-11 01:37:00,-5.7,-11.0,30.41,WNW,284,1.2,1.2,77,0.00,CLR,,0.00,WeatherDisplay:10.37,2014-02-11 07:37:00,
2014-02-11 01:42:00,-5.8,-11.1,30.41,WNW,283,1.2,1.2,77,0.00,CLR,,0.00,WeatherDisplay:10.37,2014-02-11 07:42:00,
2014-02-11 01:47:00,-5.9,-11.0,30.41,WNW,283,0.0,0.0,78,0.00,CLR,,0.00,WeatherDisplay:10.37,2014-02-11 07:47:00,
2014-02-11 01:52:00,-5.8,-10.9,30.41,WNW,284,1.2,1.2,78,0.00,CLR,,0.00,WeatherDisplay:10.37,2014-02-11 07:52:00,
2014-02-11 01:57:00,-5.7,-11.0,30.42,WNW,284,1.2,1.2,77,0.00,CLR,,0.00,WeatherDisplay:10.37,2014-02-11 07:57:00,
2014-02-11 02:02:00,-5.7,-11.0,30.42,WNW,284,1.2,1.2,77,0.00,CLR,,0.00,WeatherDisplay:10.37,2014-02-11 08:02:00,
2014-02-11 02:07:00,-5.8,-10.9,30.42,WNW,284,1.2,1.2,78,0.00,CLR,,0.00,WeatherDisplay:10.37,2014-02-11 08:07:00,
2014-02-11 02:12:00,-6.2,-11.3,30.42,WNW,284,0.0,0.0,78,0.00,CLR,,0.00,WeatherDisplay:10.37,2014-02-11 08:12:00,
2014-02-11 02:17:00,-6.5,-11.8,30.42,WNW,283,0.0,0.0,77,0.00,CLR,,0.00,WeatherDisplay:10.37,2014-02-11 08:17:00,
2014-02-11 02:22:00,-6.6,-11.9,30.42,WNW,284,0.0,0.0,77,0.00,CLR,,0.00,WeatherDisplay:10.37,2014-02-11 08:22:00,
2014-02-11 02:27:00,-6.8,-11.9,30.42,WNW,284,1.2,1.2,78,0.00,CLR,,0.00,WeatherDisplay:10.37,2014-02-11 08:27:00,
2014-02-11 02:32:00,-7.0,-12.1,30.42,WNW,284,0.0,0.0,78,0.00,CLR,,0.00,WeatherDisplay:10.37,2014-02-11 08:32:00,
2014-02-11 02:37:00,-7.1,-12.2,30.41,WNW,284,0.0,0.0,78,0.00,CLR,,0.00,WeatherDisplay:10.37,2014-02-11 08:37:00,
2014-02-11 02:42:00,-7.1,-12.2,30.41,WNW,284,0.0,0.0,78,0.00,CLR,,0.00,WeatherDisplay:10.37,2014-02-11 08:42:00,
2014-02-11 02:47:00,-7.1,-12.2,30.41,WNW,284,0.0,0.0,78,0.00,CLR,,0.00,WeatherDisplay:10.37,2014-02-11 08:47:00,
2014-02-11 02:52:00,-7.1,-12.2,30.41,WNW,283,0.0,0.0,78,0.00,CLR,,0.00,WeatherDisplay:10.37,2014-02-11 08:52:00,
2014-02-11 02:57:00,-7.1,-12.2,30.41,WNW,284,0.0,0.0,78,0.00,CLR,,0.00,WeatherDisplay:10.37,2014-02-11 08:57:00,
2014-02-11 03:02:00,-7.2,-12.2,30.41,WNW,283,0.0,0.0,78,0.00,CLR,,0.00,WeatherDisplay:10.37,2014-02-11 09:02:00,
2014-02-11 03:07:00,-7.4,-12.4,30.41,WNW,283,0.0,0.0,78,0.00,CLR,,0.00,WeatherDisplay:10.37,2014-02-11 09:07:00,
2014-02-11 03:12:00,-7.7,-12.7,30.41,WNW,284,0.0,0.0,78,0.00,CLR,,0.00,WeatherDisplay:10.37,2014-02-11 09:12:00,
2014-02-11 03:17:00,-7.9,-12.9,30.41,WNW,284,0.0,0.0,78,0.00,CLR,,0.00,WeatherDisplay:10.37,2014-02-11 09:17:00,
2014-02-11 03:22:00,-7.9,-12.9,30.41,WNW,284,0.0,0.0,78,0.00,CLR,,0.00,WeatherDisplay:10.37,2014-02-11 09:22:00,
2014-02-11 03:27:00,-8.1,-13.1,30.41,WNW,283,0.0,0.0,78,0.00,CLR,,0.00,WeatherDisplay:10.37,2014-02-11 09:27:00,
2014-02-11 03:32:00,-8.2,-13.2,30.41,WNW,283,0.0,0.0,78,0.00,CLR,,0.00,WeatherDisplay:10.37,2014-02-11 09:32:00,
2014-02-11 03:37:00,-8.4,-13.4,30.41,WNW,284,0.0,0.0,78,0.00,CLR,,0.00,WeatherDisplay:10.37,2014-02-11 09:37:00,
2014-02-11 03:42:00,-8.4,-13.4,30.41,WNW,284,0.0,0.0,78,0.00,CLR,,0.00,WeatherDisplay:10.37,2014-02-11 09:42:00,
2014-02-11 03:47:00,-8.5,-10.9,30.41,WNW,283,0.0,0.0,89,0.00,CLR,,0.00,WeatherDisplay:10.37,2014-02-11 09:47:00,
2014-02-11 03:52:00,-8.6,-13.6,30.41,WNW,284,0.0,0.0,78,0.00,CLR,,0.00,WeatherDisplay:10.37,2014-02-11 09:52:00,
2014-02-11 03:57:00,-8.5,-13.5,30.41,WNW,284,0.0,0.0,78,0.00,CLR,,0.00,WeatherDisplay:10.37,2014-02-11 09:57:00,
2014-02-11 04:02:00,-8.4,-13.4,30.41,WNW,283,0.0,0.0,78,0.00,CLR,,0.00,WeatherDisplay:10.37,2014-02-11 10:02:00,
2014-02-11 04:07:00,-8.4,-13.4,30.41,WNW,284,0.0,0.0,78,0.00,CLR,,0.00,WeatherDisplay:10.37,2014-02-11 10:07:00,
2014-02-11 04:12:00,-8.6,-13.6,30.42,WNW,283,0.0,0.0,78,0.00,CLR,,0.00,WeatherDisplay:10.37,2014-02-11 10:12:00,
2014-02-11 04:17:00,-8.8,-13.8,30.42,WNW,284,0.0,0.0,78,0.00,CLR,,0.00,WeatherDisplay:10.37,2014-02-11 10:17:00,
2014-02-11 04:23:00,-8.9,-13.9,30.42,WNW,283,0.0,0.0,78,0.00,CLR,,0.00,WeatherDisplay:10.37,2014-02-11 10:23:00,
2014-02-11 04:28:00,-9.0,-14.0,30.43,WNW,284,0.0,0.0,78,0.00,CLR,,0.00,WeatherDisplay:10.37,2014-02-11 10:28:00,
2014-02-11 04:33:00,-9.1,-14.1,30.43,WNW,284,0.0,0.0,78,0.00,CLR,,0.00,WeatherDisplay:10.37,2014-02-11 10:33:00,
2014-02-11 04:38:00,-9.2,-14.2,30.43,WNW,283,0.0,0.0,78,0.00,CLR,,0.00,WeatherDisplay:10.37,2014-02-11 10:38:00,
2014-02-11 04:43:00,-9.2,-14.2,30.43,WNW,284,0.0,0.0,78,0.00,CLR,,0.00,WeatherDisplay:10.37,2014-02-11 10:43:00,
2014-02-11 04:48:00,-9.3,-14.3,30.43,WNW,284,0.0,0.0,78,0.00,CLR,,0.00,WeatherDisplay:10.37,2014-02-11 10:48:00,
2014-02-11 04:53:00,-9.2,-14.2,30.43,WNW,284,0.0,0.0,78,0.00,CLR,,0.00,WeatherDisplay:10.37,2014-02-11 10:53:00,
2014-02-11 04:58:00,-9.2,-14.2,30.43,WNW,284,0.0,0.0,78,0.00,CLR,,0.00,WeatherDisplay:10.37,2014-02-11 10:58:00,
2014-02-11 05:03:00,-9.2,-14.2,30.43,WNW,284,0.0,0.0,78,0.00,CLR,,0.00,WeatherDisplay:10.37,2014-02-11 11:03:00,
2014-02-11 05:08:00,-9.3,-14.3,30.43,WNW,283,0.0,0.0,78,0.00,CLR,,0.00,WeatherDisplay:10.37,2014-02-11 11:08:00,
2014-02-11 05:13:00,-9.4,-14.4,30.43,WNW,284,0.0,0.0,78,0.00,CLR,,0.00,WeatherDisplay:10.37,2014-02-11 11:13:00,
2014-02-11 05:18:00,-9.5,-14.5,30.43,WNW,284,0.0,0.0,78,0.00,CLR,,0.00,WeatherDisplay:10.37,2014-02-11 11:18:00,
2014-02-11 05:23:00,-9.6,-14.6,30.43,WNW,283,0.0,0.0,78,0.00,CLR,,0.00,WeatherDisplay:10.37,2014-02-11 11:23:00,
2014-02-11 05:28:00,-9.8,-14.8,30.43,WNW,284,0.0,0.0,78,0.00,CLR,,0.00,WeatherDisplay:10.37,2014-02-11 11:28:00,
2014-02-11 05:33:00,-9.8,-14.8,30.43,WNW,283,0.0,0.0,78,0.00,CLR,,0.00,WeatherDisplay:10.37,2014-02-11 11:33:00,
2014-02-11 05:38:00,-9.8,-14.8,30.43,WNW,284,0.0,0.0,78,0.00,CLR,,0.00,WeatherDisplay:10.37,2014-02-11 11:38:00,
2014-02-11 05:43:00,-9.9,-14.9,30.44,WNW,283,0.0,0.0,78,0.00,CLR,,0.00,WeatherDisplay:10.37,2014-02-11 11:43:00,
2014-02-11 05:48:00,-9.9,-14.9,30.44,WNW,284,0.0,0.0,78,0.00,CLR,,0.00,WeatherDisplay:10.37,2014-02-11 11:48:00,
2014-02-11 05:53:00,-9.8,-14.8,30.44,WNW,283,0.0,0.0,78,0.00,CLR,,0.00,WeatherDisplay:10.37,2014-02-11 11:53:00,
2014-02-11 05:58:00,-9.8,-14.8,30.44,WNW,284,0.0,0.0,78,0.00,CLR,,0.00,WeatherDisplay:10.37,2014-02-11 11:58:00,
2014-02-11 06:03:00,-10.0,-15.0,30.44,WNW,284,0.0,0.0,78,0.00,CLR,,0.00,WeatherDisplay:10.37,2014-02-11 12:03:00,
2014-02-11 06:08:00,-10.3,-15.3,30.45,WNW,283,0.0,0.0,78,0.00,CLR,,0.00,WeatherDisplay:10.37,2014-02-11 12:08:00,
2014-02-11 06:13:00,-10.3,-15.3,30.45,WNW,284,0.0,0.0,78,0.00,CLR,,0.00,WeatherDisplay:10.37,2014-02-11 12:13:00,
2014-02-11 06:18:00,-10.4,-15.4,30.45,WNW,284,0.0,0.0,78,0.00,CLR,,0.00,WeatherDisplay:10.37,2014-02-11 12:18:00,
2014-02-11 06:23:00,-10.4,-15.4,30.45,WNW,284,0.0,0.0,78,0.00,CLR,,0.00,WeatherDisplay:10.37,2014-02-11 12:23:00,
2014-02-11 06:28:00,-10.4,-15.4,30.45,WNW,283,0.0,0.0,78,0.00,CLR,,0.00,WeatherDisplay:10.37,2014-02-11 12:28:00,
2014-02-11 06:33:00,-10.5,-15.5,30.46,WNW,284,0.0,0.0,78,0.00,CLR,,0.00,WeatherDisplay:10.37,2014-02-11 12:33:00,
2014-02-11 06:38:00,-10.7,-15.7,30.47,WNW,284,0.0,0.0,78,0.00,CLR,,0.00,WeatherDisplay:10.37,2014-02-11 12:38:00,
2014-02-11 06:43:00,-10.8,-15.8,30.47,WNW,284,1.2,1.2,78,0.00,CLR,,0.00,WeatherDisplay:10.37,2014-02-11 12:43:00,
2014-02-11 06:48:00,-11.0,-16.0,30.47,WNW,284,0.0,0.0,78,0.00,CLR,,0.00,WeatherDisplay:10.37,2014-02-11 12:48:00,
2014-02-11 06:53:00,-11.1,-16.1,30.47,WNW,284,0.0,0.0,78,0.00,CLR,,0.00,WeatherDisplay:10.37,2014-02-11 12:53:00,
2014-02-11 06:58:00,-11.1,-16.1,30.46,WNW,284,0.0,0.0,78,0.00,CLR,,0.00,WeatherDisplay:10.37,2014-02-11 12:58:00,
2014-02-11 07:03:00,-11.1,-16.1,30.47,WNW,283,0.0,0.0,78,0.00,CLR,,0.00,WeatherDisplay:10.37,2014-02-11 13:03:00,
2014-02-11 07:08:00,-11.1,-16.1,30.47,WNW,284,0.0,0.0,78,0.00,CLR,,0.00,WeatherDisplay:10.37,2014-02-11 13:08:00,
2014-02-11 07:13:00,-11.0,-16.0,30.47,WNW,284,0.0,0.0,78,0.00,CLR,,0.00,WeatherDisplay:10.37,2014-02-11 13:13:00,
2014-02-11 07:18:00,-10.8,-15.8,30.47,WNW,283,0.0,0.0,78,0.00,CLR,,0.00,WeatherDisplay:10.37,2014-02-11 13:18:00,
2014-02-11 07:23:00,-10.7,-15.7,30.47,WNW,284,0.0,0.0,78,0.00,CLR,,0.00,WeatherDisplay:10.37,2014-02-11 13:23:00,
2014-02-11 07:28:00,-10.4,-15.4,30.47,WNW,284,0.0,0.0,78,0.00,CLR,,0.00,WeatherDisplay:10.37,2014-02-11 13:28:00,
2014-02-11 07:33:00,-9.8,-14.8,30.47,WNW,284,0.0,0.0,78,0.00,CLR,,0.00,WeatherDisplay:10.37,2014-02-11 13:33:00,
2014-02-11 07:38:00,-8.8,-13.8,30.47,WNW,284,0.0,0.0,78,0.00,CLR,,0.00,WeatherDisplay:10.37,2014-02-11 13:38:00,
2014-02-11 07:43:00,-7.9,-12.9,30.47,WNW,284,2.3,2.3,78,0.00,CLR,,0.00,WeatherDisplay:10.37,2014-02-11 13:43:00,
2014-02-11 07:48:00,-7.4,-12.4,30.47,WNW,283,0.0,0.0,78,0.00,CLR,,0.00,WeatherDisplay:10.37,2014-02-11 13:48:00,
2014-02-11 07:53:00,-7.0,-12.1,30.48,WNW,283,0.0,0.0,78,0.00,CLR,,0.00,WeatherDisplay:10.37,2014-02-11 13:53:00,
2014-02-11 07:58:00,-6.4,-11.7,30.48,WNW,284,3.5,3.5,77,0.00,CLR,,0.00,WeatherDisplay:10.37,2014-02-11 13:58:00,
2014-02-11 08:03:00,-6.2,-11.5,30.48,WNW,284,2.0,2.0,77,0.00,CLR,,0.00,WeatherDisplay:10.37,2014-02-11 14:03:00,
2014-02-11 08:08:00,-5.9,-11.2,30.48,WNW,284,2.3,2.3,77,0.00,CLR,,0.00,WeatherDisplay:10.37,2014-02-11 14:08:00,
2014-02-11 08:13:00,-5.5,-10.9,30.48,WNW,284,3.5,3.5,77,0.00,CLR,,0.00,WeatherDisplay:10.37,2014-02-11 14:13:00,
2014-02-11 08:18:00,-5.0,-10.4,30.48,WNW,284,0.0,0.0,77,0.00,CLR,,0.00,WeatherDisplay:10.37,2014-02-11 14:18:00,
2014-02-11 08:23:00,-4.5,-9.9,30.48,WNW,284,2.3,2.3,77,0.00,CLR,,0.00,WeatherDisplay:10.37,2014-02-11 14:23:00,
2014-02-11 08:28:00,-4.4,-9.8,30.48,WNW,284,0.0,0.0,77,0.00,CLR,,0.00,WeatherDisplay:10.37,2014-02-11 14:28:00,
2014-02-11 08:33:00,-4.2,-9.6,30.48,WNW,284,0.0,0.0,77,0.00,CLR,,0.00,WeatherDisplay:10.37,2014-02-11 14:33:00,
2014-02-11 08:38:00,-4.2,-9.6,30.49,WNW,285,0.0,0.0,77,0.00,CLR,,0.00,WeatherDisplay:10.37,2014-02-11 14:38:00,
2014-02-11 08:43:00,-4.1,-9.5,30.48,WNW,285,0.0,0.0,77,0.00,CLR,,0.00,WeatherDisplay:10.37,2014-02-11 14:43:00,
2014-02-11 08:48:00,-3.8,-9.2,30.48,WNW,284,0.0,0.0,77,0.00,CLR,,0.00,WeatherDisplay:10.37,2014-02-11 14:48:00,
2014-02-11 08:53:00,-3.2,-8.6,30.49,WNW,284,0.0,0.0,77,0.00,CLR,,0.00,WeatherDisplay:10.37,2014-02-11 14:53:00,
2014-02-11 08:58:00,-2.6,-8.0,30.49,WNW,284,0.0,0.0,77,0.00,CLR,,0.00,WeatherDisplay:10.37,2014-02-11 14:58:00,
2014-02-11 09:03:00,-2.2,-7.6,30.49,WNW,284,0.0,0.0,77,0.00,CLR,,0.00,WeatherDisplay:10.37,2014-02-11 15:03:00,
2014-02-11 09:08:00,-1.7,-7.2,30.49,WNW,284,0.0,0.0,77,0.00,CLR,,0.00,WeatherDisplay:10.37,2014-02-11 15:08:00,
2014-02-11 09:13:00,-0.8,-6.3,30.49,WNW,285,0.0,0.0,77,0.00,CLR,,0.00,WeatherDisplay:10.37,2014-02-11 15:13:00,
2014-02-11 09:18:00,-0.3,-5.8,30.49,WNW,284,0.0,0.0,77,0.00,CLR,,0.00,WeatherDisplay:10.37,2014-02-11 15:18:00,
2014-02-11 09:23:00,0.0,-5.5,30.49,WNW,285,0.0,0.0,77,0.00,CLR,,0.00,WeatherDisplay:10.37,2014-02-11 15:23:00,
2014-02-11 09:28:00,0.5,-5.0,30.48,WNW,285,0.0,0.0,77,0.00,CLR,,0.00,WeatherDisplay:10.37,2014-02-11 15:28:00,
2014-02-11 09:33:00,1.1,-4.4,30.48,WNW,284,0.0,0.0,77,0.00,CLR,,0.00,WeatherDisplay:10.37,2014-02-11 15:33:00,
2014-02-11 09:38:00,2.3,-3.5,30.48,WNW,284,0.0,0.0,76,0.00,CLR,,0.00,WeatherDisplay:10.37,2014-02-11 15:38:00,
2014-02-11 09:43:00,3.7,-2.2,30.49,WNW,285,0.0,0.0,76,0.00,CLR,,0.00,WeatherDisplay:10.37,2014-02-11 15:43:00,
2014-02-11 09:48:00,4.7,-1.2,30.49,WNW,298,0.0,0.0,76,0.00,CLR,,0.00,WeatherDisplay:10.37,2014-02-11 15:48:00,
2014-02-11 09:53:00,5.4,-0.5,30.49,WNW,303,0.0,0.0,76,0.00,CLR,,0.00,WeatherDisplay:10.37,2014-02-11 15:53:00,
2014-02-11 09:58:00,5.9,0.0,30.48,WNW,303,0.0,0.0,76,0.00,CLR,,0.00,WeatherDisplay:10.37,2014-02-11 15:58:00,
2014-02-11 10:03:00,6.3,0.3,30.48,ENE,61,0.0,0.0,76,0.00,CLR,,0.00,WeatherDisplay:10.37,2014-02-11 16:03:00,
2014-02-11 10:08:00,6.7,0.5,30.48,East,86,5.0,5.0,75,0.00,CLR,,0.00,WeatherDisplay:10.37,2014-02-11 16:08:00,
2014-02-11 10:13:00,6.5,0.3,30.48,East,79,4.0,4.0,75,0.00,CLR,,0.00,WeatherDisplay:10.37,2014-02-11 16:13:00,
2014-02-11 10:18:00,6.9,0.6,30.48,East,88,0.0,0.0,75,0.00,CLR,,0.00,WeatherDisplay:10.37,2014-02-11 16:18:00,
2014-02-11 10:23:00,7.0,0.7,30.48,ENE,76,5.0,5.0,75,0.00,CLR,,0.00,WeatherDisplay:10.37,2014-02-11 16:23:00,
2014-02-11 10:28:00,6.9,0.4,30.48,East,79,4.6,4.7,74,0.00,CLR,,0.00,WeatherDisplay:10.37,2014-02-11 16:28:00,
2014-02-11 10:33:00,6.8,0.3,30.48,ENE,78,3.5,3.5,74,0.00,CLR,,0.00,WeatherDisplay:10.37,2014-02-11 16:33:00,
2014-02-11 10:38:00,7.4,0.8,30.48,East,80,3.5,3.5,74,0.00,CLR,,0.00,WeatherDisplay:10.37,2014-02-11 16:38:00,
2014-02-11 10:43:00,8.0,1.4,30.48,East,83,0.0,0.0,74,0.00,CLR,,0.00,WeatherDisplay:10.37,2014-02-11 16:43:00,
2014-02-11 10:48:00,8.6,1.7,30.48,ENE,72,0.0,0.0,73,0.00,CLR,,0.00,WeatherDisplay:10.37,2014-02-11 16:48:00,
2014-02-11 10:53:00,8.6,1.7,30.48,ENE,69,0.0,0.0,73,0.00,CLR,,0.00,WeatherDisplay:10.37,2014-02-11 16:53:00,
2014-02-11 10:58:00,8.7,1.8,30.48,ENE,76,0.0,0.0,73,0.00,CLR,,0.00,WeatherDisplay:10.37,2014-02-11 16:58:00,
2014-02-11 11:03:00,9.1,1.9,30.48,ENE,74,0.0,0.0,72,0.00,CLR,,0.00,WeatherDisplay:10.37,2014-02-11 17:03:00,
2014-02-11 11:08:00,9.4,2.2,30.48,East,80,0.0,0.0,72,0.00,CLR,,0.00,WeatherDisplay:10.37,2014-02-11 17:08:00,
2014-02-11 11:13:00,9.8,2.6,30.48,ENE,61,0.0,0.0,72,0.00,CLR,,0.00,WeatherDisplay:10.37,2014-02-11 17:13:00,
2014-02-11 11:18:00,9.9,2.4,30.48,East,86,0.0,0.0,71,0.00,CLR,,0.00,WeatherDisplay:10.37,2014-02-11 17:18:00,
2014-02-11 11:23:00,10.4,2.9,30.48,ENE,78,0.0,0.0,71,0.00,CLR,,0.00,WeatherDisplay:10.37,2014-02-11 17:23:00,
2014-02-11 11:28:00,10.6,2.7,30.47,East,88,0.0,0.0,70,0.00,CLR,,0.00,WeatherDisplay:10.37,2014-02-11 17:28:00,
2014-02-11 11:33:00,10.5,2.6,30.47,ENE,74,0.0,0.0,70,0.00,CLR,,0.00,WeatherDisplay:10.37,2014-02-11 17:33:00,
2014-02-11 11:38:00,10.8,2.6,30.47,SW,230,0.0,0.0,69,0.00,CLR,,0.00,WeatherDisplay:10.37,2014-02-11 17:38:00,
2014-02-11 11:43:00,11.4,3.5,30.47,SW,232,0.0,0.0,70,0.00,CLR,,0.00,WeatherDisplay:10.37,2014-02-11 17:43:00,
2014-02-11 11:48:00,12.0,4.1,30.46,SW,236,0.0,0.0,70,0.00,CLR,,0.00,WeatherDisplay:10.37,2014-02-11 17:48:00,
2014-02-11 11:53:00,12.2,6.1,30.46,WSW,238,0.0,0.0,76,0.00,CLR,,0.00,WeatherDisplay:10.37,2014-02-11 17:53:00,
2014-02-11 11:58:00,12.1,3.9,30.46,WSW,238,0.0,0.0,69,0.00,CLR,,0.00,WeatherDisplay:10.37,2014-02-11 17:58:00,
2014-02-11 12:03:00,12.4,4.2,30.46,WSW,240,0.0,0.0,69,0.00,CLR,,0.00,WeatherDisplay:10.37,2014-02-11 18:03:00,
2014-02-11 12:08:00,13.1,5.1,30.45,WSW,241,0.0,0.0,70,0.00,CLR,,0.00,WeatherDisplay:10.37,2014-02-11 18:08:00,
2014-02-11 12:13:00,13.9,5.6,30.45,WSW,240,0.0,0.0,69,0.00,CLR,,0.00,WeatherDisplay:10.37,2014-02-11 18:13:00,
2014-02-11 12:18:00,14.6,6.3,30.45,WSW,240,0.0,0.0,69,0.00,CLR,,0.00,WeatherDisplay:10.37,2014-02-11 18:18:00,
2014-02-11 12:23:00,15.0,6.0,30.45,SE,139,0.0,0.0,67,0.00,CLR,,0.00,WeatherDisplay:10.37,2014-02-11 18:23:00,
2014-02-11 12:28:00,14.4,4.8,30.44,SE,139,0.0,0.0,65,0.00,CLR,,0.00,WeatherDisplay:10.37,2014-02-11 18:28:00,
2014-02-11 12:33:00,14.6,5.0,30.44,SW,231,0.0,0.0,65,0.00,CLR,,0.00,WeatherDisplay:10.37,2014-02-11 18:33:00,
2014-02-11 12:38:00,14.2,4.2,30.43,SSE,148,0.0,0.0,64,0.00,CLR,,0.00,WeatherDisplay:10.37,2014-02-11 18:38:00,
2014-02-11 12:43:00,14.0,4.1,30.43,SSE,150,0.0,0.0,64,0.00,CLR,,0.00,WeatherDisplay:10.37,2014-02-11 18:43:00,
2014-02-11 12:48:00,14.4,4.8,30.43,SE,132,0.0,0.0,65,0.00,CLR,,0.00,WeatherDisplay:10.37,2014-02-11 18:48:00,
2014-02-11 12:53:00,14.1,3.8,30.43,East,83,0.0,0.0,63,0.00,CLR,,0.00,WeatherDisplay:10.37,2014-02-11 18:53:00,
2014-02-11 12:58:00,14.5,4.5,30.43,East,84,0.0,0.0,64,0.00,CLR,,0.00,WeatherDisplay:10.37,2014-02-11 18:58:00,
2014-02-11 13:03:00,14.8,4.5,30.42,East,84,0.0,0.0,63,0.00,CLR,,0.00,WeatherDisplay:10.37,2014-02-11 19:03:00,
2014-02-11 13:08:00,14.7,4.4,30.42,ENE,78,0.0,0.0,63,0.01,RA,,0.01,WeatherDisplay:10.37,2014-02-11 19:08:00,
2014-02-11 13:13:00,14.4,3.7,30.42,East,86,0.0,0.0,62,0.01,RA,,0.01,WeatherDisplay:10.37,2014-02-11 19:13:00,
2014-02-11 13:19:00,14.0,3.4,30.41,East,92,0.0,0.0,62,0.01,CLR,,0.01,WeatherDisplay:10.37,2014-02-11 19:19:00,
2014-02-11 13:24:00,14.0,3.4,30.41,East,90,0.0,0.0,62,0.01,CLR,,0.01,WeatherDisplay:10.37,2014-02-11 19:24:00,
2014-02-11 13:29:00,13.9,3.3,30.41,ENE,69,0.0,0.0,62,0.01,CLR,,0.01,WeatherDisplay:10.37,2014-02-11 19:29:00,
2014-02-11 13:34:00,13.9,3.6,30.41,East,79,0.0,0.0,63,0.01,CLR,,0.01,WeatherDisplay:10.37,2014-02-11 19:34:00,
2014-02-11 13:39:00,14.0,5.7,30.41,East,82,0.0,0.0,69,0.01,CLR,,0.01,WeatherDisplay:10.37,2014-02-11 19:39:00,
2014-02-11 13:44:00,14.2,3.9,30.41,ENE,78,0.0,0.0,63,0.01,CLR,,0.01,WeatherDisplay:10.37,2014-02-11 19:44:00,
2014-02-11 13:49:00,14.3,4.0,30.41,East,88,0.0,0.0,63,0.01,CLR,,0.01,WeatherDisplay:10.37,2014-02-11 19:49:00,
2014-02-11 13:54:00,14.4,4.1,30.41,East,83,0.0,0.0,63,0.01,CLR,,0.01,WeatherDisplay:10.37,2014-02-11 19:54:00,
2014-02-11 13:59:00,14.6,4.3,30.41,East,82,0.0,0.0,63,0.01,CLR,,0.01,WeatherDisplay:10.37,2014-02-11 19:59:00,
2014-02-11 14:04:00,14.4,3.7,30.41,East,94,0.0,0.0,62,0.01,CLR,,0.01,WeatherDisplay:10.37,2014-02-11 20:04:00,
2014-02-11 14:09:00,14.5,3.8,30.40,East,84,0.0,0.0,62,0.00,CLR,,0.01,WeatherDisplay:10.37,2014-02-11 20:09:00,
2014-02-11 14:14:00,14.7,4.4,30.40,East,90,0.0,0.0,63,0.00,CLR,,0.01,WeatherDisplay:10.37,2014-02-11 20:14:00,
2014-02-11 14:19:00,15.1,4.4,30.40,East,90,0.0,0.0,62,0.00,CLR,,0.01,WeatherDisplay:10.37,2014-02-11 20:19:00,
2014-02-11 14:24:00,15.2,4.1,30.40,East,90,0.0,0.0,61,0.00,CLR,,0.01,WeatherDisplay:10.37,2014-02-11 20:24:00,
2014-02-11 14:29:00,15.0,4.0,30.39,ENE,59,0.0,0.0,61,0.00,CLR,,0.01,WeatherDisplay:10.37,2014-02-11 20:29:00,
2014-02-11 14:34:00,14.8,3.8,30.39,East,87,0.0,0.0,61,0.00,CLR,,0.01,WeatherDisplay:10.37,2014-02-11 20:34:00,
2014-02-11 14:39:00,14.6,3.6,30.39,East,79,0.0,0.0,61,0.00,CLR,,0.01,WeatherDisplay:10.37,2014-02-11 20:39:00,
2014-02-11 14:44:00,14.8,3.4,30.39,ENE,76,0.0,0.0,60,0.00,CLR,,0.01,WeatherDisplay:10.37,2014-02-11 20:44:00,
2014-02-11 14:49:00,14.9,3.5,30.39,ENE,75,0.0,0.0,60,0.00,CLR,,0.01,WeatherDisplay:10.37,2014-02-11 20:49:00,
2014-02-11 14:54:00,14.8,3.4,30.39,East,82,0.0,0.0,60,0.00,CLR,,0.01,WeatherDisplay:10.37,2014-02-11 20:54:00,
2014-02-11 14:59:00,14.6,3.2,30.39,ENE,76,0.0,0.0,60,0.00,CLR,,0.01,WeatherDisplay:10.37,2014-02-11 20:59:00,
2014-02-11 15:04:00,14.6,2.9,30.39,East,82,0.0,0.0,59,0.00,CLR,,0.01,WeatherDisplay:10.37,2014-02-11 21:04:00,
2014-02-11 15:09:00,14.5,3.1,30.39,East,87,0.0,0.0,60,0.00,CLR,,0.01,WeatherDisplay:10.37,2014-02-11 21:09:00,
2014-02-11 15:14:00,14.9,3.5,30.39,East,84,0.0,0.0,60,0.00,CLR,,0.01,WeatherDisplay:10.37,2014-02-11 21:14:00,
2014-02-11 15:19:00,14.7,2.9,30.39,East,90,0.0,0.0,59,0.00,CLR,,0.01,WeatherDisplay:10.37,2014-02-11 21:19:00,
2014-02-11 15:24:00,14.6,3.2,30.39,East,89,0.0,0.0,60,0.00,CLR,,0.01,WeatherDisplay:10.37,2014-02-11 21:24:00,
2014-02-11 15:29:00,14.4,3.0,30.39,East,82,0.0,0.0,60,0.00,CLR,,0.01,WeatherDisplay:10.37,2014-02-11 21:29:00,
2014-02-11 15:34:00,14.6,3.2,30.39,East,84,0.0,0.0,60,0.00,CLR,,0.01,WeatherDisplay:10.37,2014-02-11 21:34:00,
2014-02-11 15:39:00,14.5,2.8,30.39,East,89,0.0,0.0,59,0.00,CLR,,0.01,WeatherDisplay:10.37,2014-02-11 21:39:00,
2014-02-11 15:44:00,14.6,2.9,30.39,East,88,0.0,0.0,59,0.00,CLR,,0.01,WeatherDisplay:10.37,2014-02-11 21:44:00,
2014-02-11 15:49:00,14.5,2.8,30.39,East,86,0.0,0.0,59,0.00,CLR,,0.01,WeatherDisplay:10.37,2014-02-11 21:49:00,
2014-02-11 15:54:00,14.5,3.1,30.39,East,80,0.0,0.0,60,0.00,CLR,,0.01,WeatherDisplay:10.37,2014-02-11 21:54:00,
2014-02-11 15:59:00,14.6,3.2,30.39,ENE,63,0.0,0.0,60,0.00,CLR,,0.01,WeatherDisplay:10.37,2014-02-11 21:59:00,
2014-02-11 16:04:00,14.4,3.0,30.39,East,87,0.0,0.0,60,0.00,CLR,,0.01,WeatherDisplay:10.37,2014-02-11 22:04:00,
2014-02-11 16:09:00,14.3,2.9,30.39,East,86,0.0,0.0,60,0.00,CLR,,0.01,WeatherDisplay:10.37,2014-02-11 22:09:00,
2014-02-11 16:14:00,14.0,2.7,30.38,East,90,0.0,0.0,60,0.00,CLR,,0.01,WeatherDisplay:10.37,2014-02-11 22:14:00,
2014-02-11 16:19:00,14.0,3.0,30.38,SE,125,0.0,0.0,61,0.00,CLR,,0.01,WeatherDisplay:10.37,2014-02-11 22:19:00,
2014-02-11 16:24:00,13.8,2.8,30.38,ESE,104,0.0,0.0,61,0.00,CLR,,0.01,WeatherDisplay:10.37,2014-02-11 22:24:00,
2014-02-11 16:29:00,13.5,2.5,30.38,East,84,0.0,0.0,61,0.00,CLR,,0.01,WeatherDisplay:10.37,2014-02-11 22:29:00,
2014-02-11 16:34:00,13.2,2.3,30.39,East,94,0.0,0.0,61,0.00,CLR,,0.01,WeatherDisplay:10.37,2014-02-11 22:34:00,
2014-02-11 16:39:00,13.2,2.6,30.39,East,95,0.0,0.0,62,0.00,CLR,,0.01,WeatherDisplay:10.37,2014-02-11 22:39:00,
2014-02-11 16:44:00,13.1,2.5,30.39,East,95,0.0,0.0,62,0.00,CLR,,0.01,WeatherDisplay:10.37,2014-02-11 22:44:00,
2014-02-11 16:49:00,13.1,2.9,30.39,East,92,0.0,0.0,63,0.00,CLR,,0.01,WeatherDisplay:10.37,2014-02-11 22:49:00,
2014-02-11 16:54:00,12.7,2.5,30.39,East,79,0.0,0.0,63,0.00,CLR,,0.01,WeatherDisplay:10.37,2014-02-11 22:54:00,
2014-02-11 16:59:00,12.5,2.3,30.39,East,83,0.0,0.0,63,0.00,CLR,,0.01,WeatherDisplay:10.37,2014-02-11 22:59:00,
2014-02-11 17:04:00,12.3,2.4,30.39,ENE,75,0.0,0.0,64,0.00,CLR,,0.01,WeatherDisplay:10.37,2014-02-11 23:04:00,
2014-02-11 17:09:00,12.0,2.1,30.39,ENE,76,0.0,0.0,64,0.00,CLR,,0.01,WeatherDisplay:10.37,2014-02-11 23:09:00,
2014-02-11 17:14:00,11.6,1.8,30.39,ENE,76,0.0,0.0,64,0.00,CLR,,0.01,WeatherDisplay:10.37,2014-02-11 23:14:00,
2014-02-11 17:19:00,11.2,1.7,30.39,ENE,77,0.0,0.0,65,0.00,CLR,,0.01,WeatherDisplay:10.37,2014-02-11 23:19:00,
2014-02-11 17:24:00,10.9,1.4,30.39,ENE,77,0.0,0.0,65,0.00,CLR,,0.01,WeatherDisplay:10.37,2014-02-11 23:24:00,
2014-02-11 17:29:00,10.7,1.6,30.39,ENE,76,0.0,0.0,66,0.00,CLR,,0.01,WeatherDisplay:10.37,2014-02-11 23:29:00,
2014-02-11 17:34:00,10.4,1.3,30.39,ENE,76,0.0,0.0,66,0.00,CLR,,0.01,WeatherDisplay:10.37,2014-02-11 23:34:00,
2014-02-11 17:39:00,10.3,1.5,30.38,ENE,76,0.0,0.0,67,0.00,CLR,,0.01,WeatherDisplay:10.37,2014-02-11 23:39:00,
2014-02-11 17:44:00,10.1,1.6,30.39,ENE,76,0.0,0.0,68,0.00,CLR,,0.01,WeatherDisplay:10.37,2014-02-11 23:44:00,
2014-02-11 17:49:00,9.9,1.4,30.39,ENE,76,0.0,0.0,68,0.00,CLR,,0.01,WeatherDisplay:10.37,2014-02-11 23:49:00,
2014-02-11 17:54:00,9.7,1.6,30.39,ENE,76,0.0,0.0,69,0.00,CLR,,0.01,WeatherDisplay:10.37,2014-02-11 23:54:00,
2014-02-11 17:59:00,9.5,3.7,30.39,ENE,76,0.0,0.0,77,0.00,CLR,,0.01,WeatherDisplay:10.37,2014-02-11 23:59:00,
2014-02-11 18:04:00,9.2,1.1,30.38,ENE,76,0.0,0.0,69,0.00,CLR,,0.01,WeatherDisplay:10.37,2014-02-12 00:04:00,
2014-02-11 18:09:00,8.8,1.0,30.38,ENE,76,0.0,0.0,70,0.00,CLR,,0.01,WeatherDisplay:10.37,2014-02-12 00:09:00,
2014-02-11 18:14:00,8.4,0.6,30.38,ENE,76,0.0,0.0,70,0.00,CLR,,0.01,WeatherDisplay:10.37,2014-02-12 00:14:00,
2014-02-11 18:19:00,8.1,0.3,30.38,ENE,76,0.0,0.0,70,0.00,CLR,,0.01,WeatherDisplay:10.37,2014-02-12 00:19:00,
2014-02-11 18:24:00,8.0,0.5,30.38,ENE,76,0.0,0.0,71,0.00,CLR,,0.01,WeatherDisplay:10.37,2014-02-12 00:24:00,
2014-02-11 18:29:00,7.7,0.2,30.38,ENE,76,0.0,0.0,71,0.00,CLR,,0.01,WeatherDisplay:10.37,2014-02-12 00:29:00,
2014-02-11 18:34:00,7.5,0.1,30.38,ENE,76,0.0,0.0,71,0.00,CLR,,0.01,WeatherDisplay:10.37,2014-02-12 00:34:00,
2014-02-11 18:39:00,7.3,-0.1,30.38,ENE,76,0.0,0.0,71,0.00,CLR,,0.01,WeatherDisplay:10.37,2014-02-12 00:39:00,
2014-02-11 18:44:00,7.2,-0.2,30.38,ENE,76,0.0,0.0,71,0.00,CLR,,0.01,WeatherDisplay:10.37,2014-02-12 00:44:00,
2014-02-11 18:49:00,7.1,0.0,30.38,ENE,76,0.0,0.0,72,0.00,CLR,,0.01,WeatherDisplay:10.37,2014-02-12 00:49:00,
2014-02-11 18:54:00,6.9,-0.2,30.37,ENE,76,0.0,0.0,72,0.00,CLR,,0.01,WeatherDisplay:10.37,2014-02-12 00:54:00,
2014-02-11 18:59:00,6.7,-0.4,30.37,ENE,76,0.0,0.0,72,0.00,CLR,,0.01,WeatherDisplay:10.37,2014-02-12 00:59:00,
2014-02-11 19:04:00,6.5,-0.6,30.37,ENE,76,0.0,0.0,72,0.00,CLR,,0.01,WeatherDisplay:10.37,2014-02-12 01:04:00,
2014-02-11 19:09:00,6.3,-0.5,30.37,ENE,76,0.0,0.0,73,0.00,CLR,,0.01,WeatherDisplay:10.37,2014-02-12 01:09:00,
2014-02-11 19:14:00,6.2,-0.6,30.36,ENE,76,0.0,0.0,73,0.00,CLR,,0.01,WeatherDisplay:10.37,2014-02-12 01:14:00,
2014-02-11 19:19:00,6.1,-0.7,30.36,ENE,76,0.0,0.0,73,0.00,CLR,,0.01,WeatherDisplay:10.37,2014-02-12 01:19:00,
2014-02-11 19:24:00,5.9,-0.9,30.36,ENE,76,0.0,0.0,73,0.00,CLR,,0.01,WeatherDisplay:10.37,2014-02-12 01:24:00,
2014-02-11 19:29:00,5.6,-1.2,30.37,ENE,76,0.0,0.0,73,0.00,CLR,,0.01,WeatherDisplay:10.37,2014-02-12 01:29:00,
2014-02-11 19:34:00,5.4,-1.4,30.36,ENE,76,0.0,0.0,73,0.00,CLR,,0.01,WeatherDisplay:10.37,2014-02-12 01:34:00,
2014-02-11 19:39:00,5.2,-1.3,30.36,ENE,76,0.0,0.0,74,0.00,CLR,,0.01,WeatherDisplay:10.37,2014-02-12 01:39:00,
2014-02-11 19:44:00,5.0,-1.5,30.36,ENE,76,0.0,0.0,74,0.00,CLR,,0.01,WeatherDisplay:10.37,2014-02-12 01:44:00,
2014-02-11 19:49:00,4.9,-1.6,30.36,ENE,76,0.0,0.0,74,0.00,CLR,,0.01,WeatherDisplay:10.37,2014-02-12 01:49:00,
2014-02-11 19:54:00,4.7,-1.8,30.37,ENE,76,0.0,0.0,74,0.00,CLR,,0.01,WeatherDisplay:10.37,2014-02-12 01:54:00,
2014-02-11 19:59:00,4.7,-1.8,30.36,ENE,76,0.0,0.0,74,0.00,CLR,,0.01,WeatherDisplay:10.37,2014-02-12 01:59:00,
2014-02-11 20:04:00,4.6,-1.9,30.36,ENE,76,0.0,0.0,74,0.00,CLR,,0.01,WeatherDisplay:10.37,2014-02-12 02:04:00,
2014-02-11 20:09:00,4.6,-1.9,30.36,ENE,76,0.0,0.0,74,0.00,CLR,,0.01,WeatherDisplay:10.37,2014-02-12 02:09:00,
2014-02-11 20:14:00,4.6,-1.6,30.36,ENE,76,0.0,0.0,75,0.00,CLR,,0.01,WeatherDisplay:10.37,2014-02-12 02:14:00,
2014-02-11 20:19:00,4.7,-1.5,30.36,ENE,76,0.0,0.0,75,0.00,CLR,,0.01,WeatherDisplay:10.37,2014-02-12 02:19:00,
2014-02-11 20:24:00,4.6,-1.6,30.37,ENE,76,0.0,0.0,75,0.00,CLR,,0.01,WeatherDisplay:10.37,2014-02-12 02:24:00,
2014-02-11 20:30:00,4.6,-1.6,30.36,ENE,76,0.0,0.0,75,0.00,CLR,,0.01,WeatherDisplay:10.37,2014-02-12 02:30:00,
2014-02-11 20:35:00,4.5,-1.7,30.36,ENE,76,0.0,0.0,75,0.00,CLR,,0.01,WeatherDisplay:10.37,2014-02-12 02:35:00,
2014-02-11 20:40:00,4.2,-2.0,30.37,ENE,76,0.0,0.0,75,0.00,CLR,,0.01,WeatherDisplay:10.37,2014-02-12 02:40:00,
2014-02-11 20:45:00,4.2,-2.0,30.37,ENE,76,0.0,0.0,75,0.00,CLR,,0.01,WeatherDisplay:10.37,2014-02-12 02:45:00,
2014-02-11 20:50:00,4.1,-2.1,30.37,ENE,76,0.0,0.0,75,0.00,CLR,,0.01,WeatherDisplay:10.37,2014-02-12 02:50:00,
2014-02-11 20:55:00,4.3,-1.9,30.37,ENE,76,0.0,0.0,75,0.00,CLR,,0.01,WeatherDisplay:10.37,2014-02-12 02:55:00,
2014-02-11 21:00:00,4.4,-1.8,30.37,ENE,76,0.0,0.0,75,0.00,CLR,,0.01,WeatherDisplay:10.37,2014-02-12 03:00:00,
2014-02-11 21:05:00,4.4,-1.8,30.37,ENE,76,0.0,0.0,75,0.00,CLR,,0.01,WeatherDisplay:10.37,2014-02-12 03:05:00,
2014-02-11 21:10:00,4.6,-1.6,30.37,ENE,76,0.0,0.0,75,0.00,CLR,,0.01,WeatherDisplay:10.37,2014-02-12 03:10:00,
2014-02-11 21:15:00,4.4,-1.8,30.37,ENE,76,0.0,0.0,75,0.00,CLR,,0.01,WeatherDisplay:10.37,2014-02-12 03:15:00,
2014-02-11 21:20:00,4.2,-2.0,30.37,ENE,76,0.0,0.0,75,0.00,CLR,,0.01,WeatherDisplay:10.37,2014-02-12 03:20:00,
2014-02-11 21:25:00,4.2,-2.0,30.37,ENE,76,0.0,0.0,75,0.00,CLR,,0.01,WeatherDisplay:10.37,2014-02-12 03:25:00,
2014-02-11 21:30:00,4.3,-1.9,30.37,ENE,76,0.0,0.0,75,0.00,CLR,,0.01,WeatherDisplay:10.37,2014-02-12 03:30:00,
2014-02-11 21:35:00,4.3,-1.9,30.36,ENE,76,0.0,0.0,75,0.00,CLR,,0.01,WeatherDisplay:10.37,2014-02-12 03:35:00,
2014-02-11 21:40:00,4.1,-2.1,30.37,ENE,76,0.0,0.0,75,0.00,CLR,,0.01,WeatherDisplay:10.37,2014-02-12 03:40:00,
2014-02-11 21:45:00,4.0,-2.2,30.36,ENE,76,0.0,0.0,75,0.00,CLR,,0.01,WeatherDisplay:10.37,2014-02-12 03:45:00,
2014-02-11 21:50:00,3.9,-2.3,30.36,ENE,76,0.0,0.0,75,0.00,CLR,,0.01,WeatherDisplay:10.37,2014-02-12 03:50:00,
2014-02-11 21:55:00,3.8,-2.4,30.36,ENE,76,0.0,0.0,75,0.00,CLR,,0.01,WeatherDisplay:10.37,2014-02-12 03:55:00,
2014-02-11 22:00:00,3.6,-2.6,30.36,ENE,76,0.0,0.0,75,0.00,CLR,,0.01,WeatherDisplay:10.37,2014-02-12 04:00:00,
2014-02-11 22:05:00,3.5,-2.7,30.36,ENE,76,0.0,0.0,75,0.00,CLR,,0.01,WeatherDisplay:10.37,2014-02-12 04:05:00,
2014-02-11 22:10:00,3.5,-2.7,30.36,ENE,76,0.0,0.0,75,0.00,CLR,,0.01,WeatherDisplay:10.37,2014-02-12 04:10:00,
2014-02-11 22:15:00,3.5,-2.7,30.35,ENE,76,0.0,0.0,75,0.00,CLR,,0.01,WeatherDisplay:10.37,2014-02-12 04:15:00,
2014-02-11 22:20:00,3.3,-2.8,30.36,ENE,76,0.0,0.0,75,0.00,CLR,,0.01,WeatherDisplay:10.37,2014-02-12 04:20:00,
2014-02-11 22:25:00,3.3,-2.8,30.35,ENE,76,0.0,0.0,75,0.00,CLR,,0.01,WeatherDisplay:10.37,2014-02-12 04:25:00,
2014-02-11 22:30:00,3.2,-2.9,30.35,ENE,76,0.0,0.0,75,0.00,CLR,,0.01,WeatherDisplay:10.37,2014-02-12 04:30:00,
2014-02-11 22:35:00,2.9,-3.0,30.35,ENE,76,0.0,0.0,76,0.00,CLR,,0.01,WeatherDisplay:10.37,2014-02-12 04:35:00,
2014-02-11 22:40:00,2.8,-3.1,30.34,ENE,76,0.0,0.0,76,0.00,CLR,,0.01,WeatherDisplay:10.37,2014-02-12 04:40:00,
2014-02-11 22:45:00,2.8,-3.1,30.34,ENE,76,0.0,0.0,76,0.00,CLR,,0.01,WeatherDisplay:10.37,2014-02-12 04:45:00,
2014-02-11 22:50:00,2.5,-3.3,30.34,ENE,76,0.0,0.0,76,0.00,CLR,,0.01,WeatherDisplay:10.37,2014-02-12 04:50:00,
2014-02-11 22:55:00,2.2,-3.6,30.34,ENE,76,0.0,0.0,76,0.00,CLR,,0.01,WeatherDisplay:10.37,2014-02-12 04:55:00,
2014-02-11 23:00:00,2.1,-4.0,30.34,ENE,76,0.0,0.0,75,0.00,CLR,,0.01,WeatherDisplay:10.37,2014-02-12 05:00:00,
2014-02-11 23:01:00,2.1,-4.0,30.34,ENE,76,0.0,0.0,75,0.00,CLR,,0.01,WeatherDisplay:10.37,2014-02-12 05:01:00,
2014-02-11 23:02:00,2.1,-4.0,30.34,ENE,76,0.0,0.0,75,0.00,CLR,,0.01,WeatherDisplay:10.37,2014-02-12 05:02:00,
2014-02-11 23:07:00,2.0,-4.1,30.34,ENE,76,0.0,0.0,75,0.00,CLR,,0.01,WeatherDisplay:10.37,2014-02-12 05:07:00,
2014-02-11 23:12:00,1.9,-4.2,30.34,ENE,76,0.0,0.0,75,0.00,CLR,,0.01,WeatherDisplay:10.37,2014-02-12 05:12:00,
2014-02-11 23:17:00,1.9,-4.2,30.33,ENE,76,0.0,0.0,75,0.00,CLR,,0.01,WeatherDisplay:10.37,2014-02-12 05:17:00,
2014-02-11 23:22:00,1.8,-4.3,30.33,ENE,76,0.0,0.0,75,0.00,CLR,,0.01,WeatherDisplay:10.37,2014-02-12 05:22:00,
2014-02-11 23:27:00,1.7,-4.1,30.33,ENE,76,0.0,0.0,76,0.00,CLR,,0.01,WeatherDisplay:10.37,2014-02-12 05:27:00,
2014-02-11 23:32:00,1.5,-4.3,30.33,ENE,76,0.0,0.0,76,0.00,CLR,,0.01,WeatherDisplay:10.37,2014-02-12 05:32:00,
2014-02-11 23:37:00,1.4,-4.7,30.33,ENE,76,0.0,0.0,75,0.00,CLR,,0.01,WeatherDisplay:10.37,2014-02-12 05:37:00,
2014-02-11 23:42:00,1.2,-4.6,30.33,ENE,76,0.0,0.0,76,0.00,CLR,,0.01,WeatherDisplay:10.37,2014-02-12 05:42:00,
2014-02-11 23:47:00,1.0,-4.8,30.33,ENE,76,0.0,0.0,76,0.00,CLR,,0.01,WeatherDisplay:10.37,2014-02-12 05:47:00,
2014-02-11 23:52:00,0.9,-4.9,30.32,ENE,76,0.0,0.0,76,0.00,CLR,,0.01,WeatherDisplay:10.37,2014-02-12 05:52:00,
2014-02-11 23:57:00,0.8,-5.0,30.32,ENE,76,0.0,0.0,76,0.00,CLR,,0.01,WeatherDisplay:10.37,2014-02-12 05:57:00,